This is the latest recevied weather packets stored in our database for station/object SV9TNF-2. If no packets are shown the sender has not sent any weather packets the latest 10 day(s).
| Time | Temp. | Humidity | Pressure | Rain* | Wind** | Luminosity | Snow |
|---|---|---|---|---|---|---|---|
| 1777958276 | 17.78° C | 74% | 1023.7 hPa | 0 mm | 1.34 m/s, 221° | - | - |
| 1777957976 | 17.22° C | 76% | 1023.7 hPa | 0 mm | 4.47 m/s, 162° | - | - |
| 1777957676 | 16.67° C | 79% | 1023.7 hPa | 0 mm | 0 m/s | - | - |
| 1777957376 | 16.67° C | 81% | 1023.7 hPa | 0 mm | 1.34 m/s, 215° | - | - |
| 1777957076 | 15.56° C | 82% | 1023.4 hPa | 0 mm | 1.34 m/s, 194° | - | - |
| 1777956775 | 15.56° C | 83% | 1023.4 hPa | 0 mm | 1.79 m/s, 183° | - | - |
| 1777956475 | 14.44° C | 85% | 1023.4 hPa | 0 mm | 3.13 m/s, 186° | - | - |
| 1777956175 | 14.44° C | 85% | 1023.4 hPa | 0 mm | 4.02 m/s, 178° | - | - |
| 1777955875 | 14.44° C | 86% | 1023.4 hPa | 0 mm | 2.24 m/s, 180° | - | - |
| 1777955575 | 13.89° C | 87% | 1023.4 hPa | 0 mm | 2.68 m/s, 236° | - | - |
| 1777955275 | 13.33° C | 87% | 1023.4 hPa | 0 mm | 5.81 m/s, 223° | - | - |
| 1777954975 | 13.33° C | 87% | 1023.4 hPa | 0 mm | 3.13 m/s, 221° | - | - |
| 1777954675 | 12.78° C | 88% | 1023.4 hPa | 0 mm | 2.68 m/s, 186° | - | - |
| 1777954375 | 12.78° C | 88% | 1023.4 hPa | 0 mm | 2.68 m/s, 208° | - | - |
| 1777954075 | 12.22° C | 88% | 1023.4 hPa | 0 mm | 5.36 m/s, 182° | - | - |
| 1777953774 | 12.22° C | 88% | 1023.4 hPa | 0 mm | 5.81 m/s, 127° | - | - |
| 1777953474 | 12.22° C | 88% | 1023.4 hPa | 0 mm | 6.26 m/s, 164° | - | - |
| 1777953174 | 11.67° C | 88% | 1023.4 hPa | 0 mm | 8.05 m/s, 193° | - | - |
| 1777952874 | 11.67° C | 88% | 1023.4 hPa | 0 mm | 5.81 m/s, 230° | - | - |
| 1777952574 | 11.67° C | 88% | 1023.4 hPa | 0 mm | 4.92 m/s, 219° | - | - |
| 1777952274 | 11.67° C | 88% | 1023.4 hPa | 0 mm | 4.47 m/s, 226° | - | - |
| 1777951974 | 11.67° C | 88% | 1023.4 hPa | 0 mm | 8.05 m/s, 198° | - | - |
| 1777951674 | 11.67° C | 88% | 1023.4 hPa | 0 mm | 4.92 m/s, 171° | - | - |
| 1777951374 | 11.67° C | 88% | 1023.4 hPa | 0 mm | 3.13 m/s, 155° | - | - |
| 1777951074 | 11.67° C | 88% | 1023.4 hPa | 0 mm | 6.71 m/s, 154° | - | - |
* Rain latest hour (hover to see other rain measurements)
** Current wind speed in m/s (hover to see current wind gust speed)